www.pogodaiklimat.ru

ПОГОДА в Бейвилле, NJ

  • Прогноз погоды в Бейвилле
  • Монитор погоды в Бейвилле
  • Климат в Бейвилле

АРХИВ ПОГОДЫ в Бейвилле

Время (UTC), дата Ветер
(напр.,м/с)
 
Видим.   Явления Облачность Т
(С)
Тd
(С)
f
(%)
Тe
(С)
Тes
(С)
Комфортность

P
(гПа)

Po
(гПа)
Тmin
(С)
Tmax
(С)
R
(мм)
SD
(см)
09:56 20.05 ЮЗ  16 км    ясно  +21.1  +19.4  90  +26  +26  душно  1012.0  1008.4         
10:56 20.05 ЮЗ  6
{9} 
16 км    ясно  +25.0  +20.0  74  +31  +31  очень
душно 
1012.2  1008.7  +20.6  +25.0     
11:56 20.05 З  16 км    ясно  +26.7  +20.0  67  +33  +34  очень
душно 
1012.2  1008.7         
12:56 20.05 З  16 км    ясно  +28.9  +19.4  57  +35  +36  очень
душно 
1011.9  1008.4         
13:56 20.05 ЮЗ  7
{10} 
16 км    н/о  +30.0  +18.3  50  +35  +35  очень
душно 
1011.2  1007.7         
14:56 20.05 З  7
{11} 
16 км    н/о  +31.1  +17.8  45  +35  +35  очень
душно 
1010.7  1007.1         
15:56 20.05 З  8
{11} 
16 км    н/о  +31.7  +17.2  42  +35  +35  очень
душно 
1010.2  1006.7         
16:56 20.05 З  10
{14} 
16 км    н/о  +32.8  +17.8  41  +37  +37  очень
душно 
1009.2  1005.7  +25.0  +33.3     
17:56 20.05 ЮЗ  8
{13} 
16 км    н/о  +32.8  +16.7  38  +36  +36  очень
душно 
1008.5  1005.0         
18:56 20.05 ЮЗ  7
{12} 
16 км    н/о  +32.8  +16.7  38  +36  +36  очень
душно 
1007.7  1004.4         
19:56 20.05 З  10
{13} 
16 км    н/о  +32.2  +16.1  38  +35  +35  очень
душно 
1007.2  1003.7         
20:56 20.05 З  9
{13} 
16 км    н/о  +30.6  +16.1  42  +34  +34  очень
душно 
1007.1  1003.7         
21:56 20.05 З  7
{11} 
16 км    н/о  +30.0  +17.8  48  +34  +34  очень
душно 
1007.2  1003.7         
22:56 20.05 З  16 км    н/о  +28.9  +18.3  53  +34  +34  очень
душно 
1007.5  1004.0  +28.9  +32.8     
23:56 20.05 ЮЗ  16 км    н/о  +26.7  +18.3  60  +31  +31  душно  1007.7  1004.4         
00:56 21.05 ЮЗ  16 км    н/о  +25.6  +18.3  64  +30  +30  душно  1008.8  1005.4         
01:56 21.05 З  16 км    н/о  +23.3  +17.8  71  +29  +29  душно  1009.3  1005.7         
02:56 21.05 ЮЗ  16 км    н/о  +20.6  +16.7  78  +24  +24  комфорт  1009.6  1006.0         
03:56 21.05 З  16 км    н/о  +21.7  +12.8  57  +24  +24  комфорт  1009.5  1006.0         
04:56 21.05 СЗ  16 км    н/о  +20.0  +12.8  63  +22  +22  комфорт  1010.5  1007.1  +20.0  +28.9     
05:56 21.05 СЗ  16 км    н/о  +18.9  +12.2  65  +20  +20    1011.0  1007.4         
06:56 21.05 СЗ  16 км    н/о  +17.2  +11.7  70  +17  +17    1011.6  1008.1         
07:56 21.05 СЗ  16 км    н/о  +16.7  +8.3  58  +16  +16    1012.0  1008.4         
08:56 21.05 СЗ  16 км    н/о  +16.1  +8.3  60  +15  +15    1012.8  1009.1         
09:56 21.05 СЗ  16 км    н/о  +16.1  +8.3  60  +15  +15    1013.5  1010.1         
10:56 21.05 СЗ  6
{10} 
16 км    н/о  +16.7  +7.2  53  +15  +15    1014.5  1010.8  +15.6  +20.0     
11:56 21.05 СЗ  8
{11} 
16 км    н/о  +16.7  +5.6  48  +15  +15    1014.6  1011.1         
12:56 21.05 С  6
{11} 
16 км    ясно  +17.2  +6.7  50  +16  +18    1014.7  1011.1         
13:56 21.05 СЗ  8
{11} 
16 км    ясно  +17.2  +4.4  43  +16  +17    1015.4  1011.8         
14:56 21.05 СЗ  8
{10} 
16 км    ясно  +18.3  +4.4  40  +17  +19    1015.5  1011.8         
15:56 21.05 СЗ  8
{10} 
16 км    ясно  +18.9  +4.4  38  +18  +21    1015.1  1011.4         
16:56 21.05 СЗ  8
{11} 
16 км    ясно  +20.0  +5.0  37  +20  +22    1014.9  1011.4  +16.1  +20.6     
17:56 21.05 СЗ  6
{12} 
16 км    ясно  +21.1  +5.0  35  +22  +27  комфорт  1014.8  1011.1         
18:56 21.05 СЗ  6
{12} 
16 км    ясно  +21.1  +5.0  35  +22  +26  комфорт  1015.1  1011.4         
19:56 21.05 СЗ  7
{9} 
16 км    ясно  +21.7  +5.6  35  +22  +24  комфорт  1015.1  1011.4         
20:56 21.05 СЗ  8
{11} 
16 км    ясно  +22.2  +5.6  34  +23  +24  комфорт  1015.4  1011.8         
21:56 21.05 СЗ  16 км    ясно  +21.7  +5.0  34  +22  +24  комфорт  1015.7  1012.1         
22:56 21.05 СЗ  16 км    ясно  +20.0  +3.9  35  +20  +21    1016.9  1013.1  +20.0  +22.2     
23:56 21.05 СЗ  16 км    ясно  +17.8  +2.2  35  +18  +18    1017.7  1014.1         
00:56 22.05 СЗ  16 км    ясно  +16.7  +1.7  36  +16  +16    1019.1  1015.5         
01:56 22.05 СЗ  16 км    ясно  +15.6  +2.2  40  +15  +15    1019.9  1016.2         
02:56 22.05 СЗ  16 км    ясно  +13.9  +2.8  47  +14  +14    1020.7  1016.8         
03:56 22.05 С  16 км    ясно  +12.2  +2.8  53  +11  +11    1020.9  1017.2         
04:56 22.05 С  16 км    ясно  +10.6  +3.9  63  +9  +9    1021.5  1017.9  +9.4  +20.0     
05:56 22.05 СЗ  16 км    ясно  +7.2  +3.9  80  +4  +4    1021.7  1018.2         
06:56 22.05   16 км    ясно  +6.1  +3.3  82  +5  +5    1022.2  1018.5         
07:56 22.05   16 км    ясно  +5.6  +3.9  89  +5  +5    1022.7  1018.9         
08:56 22.05   16 км    ясно  +5.0  +3.9  93  +4  +4    1023.4  1019.5         

 

Местоположение метеостанции Miller Air Park: широта 39.9270 долгота -74.2920 высота над уровнем моря 25 м.

В архиве по умолчанию представлена погода в Бейвилле за последние 1-2 суток. Обновление информации о фактической погоде в базе происходит ежечасно! Архивные данные за месяц целиком и за предыдущие месяцы Вы можете получить, выбрав интересующий диапазон дат из раскрывающегося списка и нажав кнопку "Ввод!".

Внимание! Архив погоды МЕТАР в базе сайта хранится не более 60 дней. Нет смысла пытаться выбрать более раннюю дату.

Внимание! Время в таблицах - всемирное. Для получения местного времени необходимо прибавить поправку, которая в Бейвилле равна -5 ч.

Ветер - указаны скорость ветра в м/с и направление, откуда дует ветер: С - северный, СВ - северо-восточный, В - восточный, ЮВ - юго-восточный, Ю - южный, ЮЗ - юго-западный, З - западный, СЗ - северо-западный.
Видимость - горизонтальная дальность видимости в метрах или километрах. При видимости от 1 до 10 км при отсутствии осадков обычно наблюдается дымка, при ухудшении видимости до 1 км и менее - туман. В сухую погоду видимость может ухудшаться дымом, пылью или мглою.
Атмосферные явления - указаны явления, наблюдавшиеся в указанный момент времени.
Облачность - указаны через наклонную черту верхняя и нижняя облачность в баллах и высота нижней границы облаков в метрах. Внимание: облачность, как и прочие метеорологические величины в США измеряются автоматическими метеостанциями. Указанные значения в баллах носят условный характер и показывают процент времени, в течение которого, в среднем, лазерный луч высотомера отражался от облаков обратно.
T - Температура воздуха - температура, измеренная на высоте 2 м над землей.
Td - Температура точки росы - температура, при понижении до которой содержащийся в воздухе водяной пар достигнет насыщения.
f - Относительная влажность воздуха - влажноcть воздуха, измеренная на высоте 2 м над землей.
Te - Эффективная температура - температура, которую ощущает одетый по сезону человек в тени. Характеристика душности погоды. При расчете учитывается влияние влажности воздуха и скорости ветра на теплоощущения человека.
Tes - Эффективная температура на солнце - температура, которую ощущает человек, с поправкой на солнечный нагрев. Характеристика знойности погоды. Зависит от высоты солнца над горизонтом, облачности и скорости ветра. Ночью, в пасмурную погоду, а также при ветре 12 м/с и более поправка равна нулю.
P - Атмосферное давление - приведенное к уровню моря атмосферное давление.
Po - Атмосферное давление - измеренное на уровне метеостанции атмосферное давление.
Tmin - Минимальная температура - минимум температуры воздуха на высоте 2 м над землей.
Tmax - Максимальная температура - максимум температуры воздуха на высоте 2 м над землей.
R - Количество осадков - Количество выпавших осадков за 3 или 6 часов, мм.
SD - Снежный покров - Высота снежного покрова, см.